Weather History for Wheeler AAF, HI

Change the Weather History Date:

Monday, January 6, 2014

  Actual Average Record
Temperature  
Mean Temperature 65 °F -  
Max Temperature 73 °F 74 °F 78 °F (2004)
Min Temperature 57 °F 60 °F 55 °F (1997)
Growing Degree Days 15 (Base 50)    
Moisture  
Dew Point 54 °F    
Average Humidity 68    
Maximum Humidity 86    
Minimum Humidity 48    
Precipitation  
Precipitation 0.00 in - - ()
Sea Level Pressure  
Sea Level Pressure 30.03 in    
Wind  
Wind Speed 8 mph (North)    
Max Wind Speed 15 mph    
Max Gust Speed 23 mph    
Visibility 10 miles    
Events      
Averages and records for this station are not official NWS values.
T = Trace of Precipitation, MM = Missing Value Source: NWS Daily Summary

Daily Weather History Graph

Daily Weather History Graph

Search for Another Location

Airport:

Trip Planner

Search our weather history database for the weather conditions in past years. The results will help you decide how hot, cold, wet, or windy it might be!

Date:

Astronomy

Jan. 06, 2014 Rise Set
Actual Time 7:11 AM HST 6:04 PM HST
Civil Twilight 6:47 AM HST 6:29 PM HST
Nautical Twilight 6:19 AM HST 6:56 PM HST
Astronomical Twilight 5:52 AM HST 7:23 PM HST
Moon 11:21 AM HST (1/6) 11:58 PM HST (1/6)
Length of Visible Light 11h 41m
Length of Day
10h 53m
Waxing Crescent, 37% of the Moon is Illuminated
Jan 6
Waxing Crescent
Jan 7
First Quarter
Jan 15
Full
Jan 23
Last Quarter
Jan 30
New

Hourly Weather History & Observations

Time (HST) Temp. Dew Point Humidity Pressure Visibility Wind Dir Wind Speed Gust Speed Precip Events Conditions
12:58 AM 60.1 °F 55.0 °F 83% 30.01 in 10.0 mi NNW 5.8 mph - N/A   Clear
1:58 AM 57.9 °F 53.4 °F 85% 30.00 in 10.0 mi NW 4.6 mph - N/A   Clear
2:58 AM 58.3 °F 54.1 °F 86% 30.00 in 10.0 mi WNW 5.8 mph - N/A   Clear
3:58 AM 57.6 °F 52.9 °F 84% 30.00 in 10.0 mi WNW 6.9 mph - N/A   Clear
4:58 AM 58.5 °F 53.2 °F 83% 30.01 in 10.0 mi WNW 4.6 mph - N/A   Clear
5:58 AM 61.2 °F 54.7 °F 79% 30.01 in 10.0 mi NNW 6.9 mph - N/A   Clear
6:58 AM 59.2 °F 54.1 °F 83% 30.02 in 10.0 mi WNW 6.9 mph - N/A   Partly Cloudy
7:58 AM 59.7 °F 55.0 °F 84% 30.05 in 10.0 mi WNW 4.6 mph - N/A   Clear
8:58 AM 67.1 °F 56.1 °F 68% 30.06 in 10.0 mi North 5.8 mph - N/A   Clear
9:58 AM 69.8 °F 55.9 °F 61% 30.07 in 10.0 mi NNE 10.4 mph - N/A   Clear
10:58 AM 71.1 °F 54.7 °F 56% 30.06 in 10.0 mi NNE 11.5 mph 18.4 mph N/A   Scattered Clouds
11:58 AM 71.4 °F 53.8 °F 54% 30.05 in 10.0 mi NNE 13.8 mph - N/A   Clear
12:58 PM 72.9 °F 56.7 °F 57% 30.02 in 10.0 mi North 15.0 mph 20.7 mph N/A   Partly Cloudy
1:04 PM 71.6 °F 55.4 °F 57% 30.03 in 10.0 mi NNE 12.7 mph 20.7 mph N/A   Scattered Clouds
1:58 PM 73.6 °F 52.7 °F 48% 30.00 in 10.0 mi NNE 15.0 mph 23.0 mph N/A   Clear
2:58 PM 73.4 °F 53.2 °F 49% 29.99 in 10.0 mi ENE 13.8 mph 18.4 mph N/A   Clear
3:58 PM 72.0 °F 53.1 °F 51% 30.00 in 10.0 mi NNE 11.5 mph - N/A   Clear
4:58 PM 71.1 °F 53.6 °F 54% 30.03 in 10.0 mi NE 12.7 mph - N/A   Clear
5:58 PM 68.4 °F 53.4 °F 59% 30.06 in 10.0 mi North 6.9 mph - N/A   Clear
6:58 PM 66.2 °F 53.6 °F 64% 30.06 in 10.0 mi North 8.1 mph - N/A   Clear
7:58 PM 65.1 °F 53.2 °F 65% 30.07 in 10.0 mi Variable 5.8 mph - N/A   Clear
8:58 PM 60.8 °F 51.8 °F 72% 30.07 in 10.0 mi NNW 4.6 mph - N/A   Partly Cloudy
9:58 PM 64.2 °F 54.3 °F 70% 30.07 in 10.0 mi North 6.9 mph - N/A   Clear
10:58 PM 64.9 °F 54.3 °F 68% 30.07 in 10.0 mi North 6.9 mph - N/A   Partly Cloudy
11:58 PM 64.6 °F 54.0 °F 68% 30.06 in 10.0 mi North 5.8 mph - N/A   Clear